This demonstration page uses our WeatherBlox Daily Observations layout. Learn more.

36.17497, -115.13722

Hourly Observations for February 10, 2018

Temp ( °F °C ) Dew Point ( °F °C ) Humidity (%) Winds ( mph kmh ) Pressure ( in mb ) Visibility ( mi km ) Precip ( " mm )
12:53 am 00:53 Clear 58 14.4 23 -5 26 26 Calm 29.82 1010 10 16.0934 0 0
1:53 am 01:53 Clear 56 13.3 26 -3.3 32 32 SSW 6 9 29.82 1010 10 16.0934 0 0
2:53 am 02:53 Clear 55 12.8 22 -5.6 28 28 NW 3 6 29.81 1010 10 16.0934 0 0
3:53 am 03:53 Clear 54 12.2 22 -5.6 29 29 Calm 29.78 1008 10 16.0934 0 0
4:53 am 04:53 Clear 53 11.7 22 -5.6 30 30 Calm 29.78 1009 10 16.0934 0 0
5:53 am 05:53 Clear 54 12.2 22 -5.6 29 29 Calm 29.79 1009 10 16.0934 0 0
6:53 am 06:53 Sunny 53 11.7 22 -5.6 30 30 VRB 5 7 29.79 1009 10 16.0934 0 0
7:53 am 07:53 Sunny 56 13.3 23 -5 28 28 Calm 29.79 1009 10 16.0934 0 0
8:53 am 08:53 Sunny 59 15 23 -5 25 25 Calm 29.78 1008 10 16.0934 0 0
9:53 am 09:53 Sunny 63 17.2 22 -5.6 21 21 Calm 29.78 1008 10 16.0934 0 0
10:53 am 10:53 Sunny 69 20.6 20 -6.7 15 15 SW 5 7 29.75 1007 10 16.0934 0 0
11:53 am 11:53 Sunny 75 23.9 19 -7.2 12 12 NNW 14 22 29.7 1006 10 16.0934 0 0
12:53 pm 12:53 Sunny 77 25 18 -7.8 11 11 N 18 30 29.68 1005 10 16.0934 0 0
1:53 pm 13:53 Sunny 77 25 19 -7.2 11 11 NNW 22 35 29.67 1005 10 16.0934 0 0
2:53 pm 14:53 Sunny 77 25 19 -7.2 11 11 NNW 20 31 29.7 1006 10 16.0934 0 0
3:45 pm 15:45 Sunny 72 22.2 19 -7.2 13 13 NNE 18 30 29.62 1003 10 16.0934 0 0
3:53 pm 15:53 Sunny 72 22.2 20 -6.7 14 14 NE 13 20 29.75 1007 10 16.0934 0 0
4:53 pm 16:53 Sunny 69 20.6 16 -8.9 13 13 N 18 30 29.79 1009 10 16.0934 0 0
5:53 pm 17:53 Clear 66 18.9 11 -11.7 11 11 NNE 13 20 29.87 1012 10 16.0934 0 0
6:53 pm 18:53 Clear 62 16.7 -3 -19.4 7 7 NNE 5 7 29.94 1014 10 16.0934 0 0
7:53 pm 19:53 Clear 58 14.4 -9 -22.8 6 6 ENE 18 30 30.01 1016 10 16.0934 0 0
8:53 pm 20:53 Clear 55 12.8 3 -16.1 12 12 NE 13 20 30.06 1018 9 14.48406 0 0
9:53 pm 21:53 Clear 54 12.2 -3 -19.4 9 9 N 14 22 30.08 1019 10 16.0934 0 0
10:53 pm 22:53 Clear 53 11.7 1 -17.2 12 12 N 9 15 30.12 1020 10 16.0934 0 0
11:53 pm 23:53 Clear 51 10.6 1 -17.2 13 13 NE 13 20 30.12 1020 10 16.0934 0 0

Powered by AerisWeather